Tracking 19145 objects as of 25-Apr-2018
HD Live streaming from Space Station
objects crossing your sky now

ARIANE 44LP DEB

Track ARIANE 44LP DEB now!
10-day predictions


NORAD ID: 27662
Int'l Code: 1991-015N
Perigee: 359.6 km
Apogee: 23,967.0 km
Inclination: 5.9 °
Period: 418.5 minutes
Semi major axis: 18534 km
RCS: 0.2322 m2 (medium)
Launch date: March 2, 1991
Source: France (FR)
Launch site: FRENCH GUIANA (FRGUI)

Note: This is SATELLITE DEBRIS
aabbcc
Your satellite tracking list
Your tracking list is empty




NASA's NSSDC Master Catalog

Two Line Element Set (TLE):
1 27662U 91015N   18114.72582372  .00001003  00000-0  97023-3 0  9998
2 27662   5.8613 318.7568 6368565  73.3884 344.0959  3.44064049223238
Source of the keplerian elements: AFSPC